LAPAN-A3

Last updated on Sat Nov 01 2025 00:02:30 GMT+0000 (Coordinated Universal Time)

1 41603U 16040E 25304.67734730 .00006073 00000+0 20433-3 0 9996 2 41603 97.1433 303.7791 0012674 110.6152 249.6450 15.31065042519821
UTC large
Height (km)
Speed (km/s)
/
Latitude / Longitude
Inclination (degrees)
Orbital Period (minutes)
Azimuth
Elevation
Range (km)
Doppler Factor

Next 0 passes for location: London (51.5072 / 0.1276)

Sorry there are no passes over London.